sat.trackr.live / text

‹ back to catalog

STARLINK-32268

NORAD 60372 · 2024-138T

PAYLOAD ACTIVE UNKNOWN

§ Identity

Operator
Country
US
Launch date
2024-08-04
Launch site
AFWTR
Launch vehicle
Mass (kg)
RCS (m²)

Purposes: comms

External: N2YO · Heavens-Above · Gunter

§ Orbital elements

Epoch: 2026-05-25T04:11:24.441216Z

Period
94.11 min
Inclination
53.1610°
Eccentricity
0.0001298
Mean motion
15.30195241 rev/d
Perigee alt
474.3 km
Apogee alt
476.1 km
Semi-major
6,853.4 km
B*
3.9665e-5
RAAN
314.6346°
Arg perigee
104.5866°
Mean anomaly
255.5279°
Rev number
10,233

§ Raw data

STARLINK-322681 60372U 24138T   26145.17458844  .00000816  00000+0  39665-4 0  99922 60372  53.1610 314.6346 0001298 104.5866 255.5279 15.30195241102338

JSON: /api/v1/satellites/60372 · /tle

For live sub-satellite position, see the globe view (requires WebGL).

§ Visibility from observer

Set your observer location to see the next 7 days of passes ≥ 10°. The values pass through the URL so the page stays shareable.

No JS? Fill the form by hand. The geolocation button needs JavaScript.